Simultaneous Nadir Overpasses (SNOs) Predictions

Prediction of SNOs between LANDSAT-8 and NOAA-19 Satellite Orbit:

Table of predicted SNOs for the next 14.0 days since TLE Epoch: 5/25/2024
Index Date (LANDSAT-8) Time (LANDSAT-8) Lat,Lon (LANDSAT-8) SZA (LANDSAT-8 ) Date (NOAA-19) Time (NOAA-19) Lat,Lon (NOAA-19) SZA (NOAA-19 ) Distance(km) Time Diff (sec)
1 05/26/2024 22:26:55 80.66,-123.48 60.99 05/26/2024 22:26:02 80.66,-123.64 60.95 2.95 53
2 05/26/2024 23:16:20 -80.72, 44.80 118.92 05/26/2024 23:17:03 -80.71, 44.82 118.90 0.73 43
3 05/29/2024 04:50:04 80.66, 140.75 60.62 05/29/2024 04:48:56 80.66, 140.83 60.61 1.50 68
4 05/29/2024 05:39:30 -80.69, -51.29 119.33 05/29/2024 05:39:59 -80.68, -51.45 119.34 3.00 29
5 05/31/2024 12:02:40 -80.68,-147.22 119.69 05/31/2024 12:02:54 -80.69,-147.11 119.66 1.97 14
6 06/02/2024 18:25:49 -80.68, 117.01 119.98 06/02/2024 18:25:49 -80.68, 117.12 119.97 1.90 0
7 06/05/2024 00:48:58 -80.67, 21.07 120.28 06/05/2024 00:48:45 -80.66, 20.90 120.31 3.28 13
8 06/05/2024 01:38:17 80.86,-168.98 60.10 06/05/2024 01:39:31 80.77,-168.88 60.07 9.90 74
9 06/07/2024 07:12:07 -80.64, -75.05 120.57 06/07/2024 07:11:40 -80.64, -75.07 120.58 0.82 27



Historial Predications of SNOs between LANDSAT-8 and NOAA-19
